スミス彗星

C/2019 K7 ( Smith )

English version
Home page
Updated on January 23, 2021

---------------------------------------------------------------------

・ プロフィール

発見日 2019年5月30日
発見光度 17.7等
発見者 Ken W. Smith (Asteroid Terrestrial-Impact Last Alert System (ATLAS) search program)

・ 写真集

・ 軌道要素

Epoch 2020 May 31.0 TT = JDT 2459000.5
T 2020 June 16.89570 TT                                 Rudenko
q   4.4750165            (2000.0)            P               Q
z  -0.0003385      Peri.   27.29096     +0.46155674     -0.44585520
 +/-0.0000007      Node   307.92355     -0.88100416     -0.12911500
e   1.0015148      Incl.  103.53360     +0.10390883     +0.88574401
From 1122 observations 2019 May 30-2020 Oct. 17, mean residual 0".5.

・ 星図

・ 光度変化

        m1 = -1.0 + 5 logΔ + 20.0 log r

---------------------------------------------------------------------

軌道要素はM.P.E.C. 2020-U96に掲載されたものです。
星図はステラナビゲータ Ver.10 (アストロアーツ) で作成したものです。
光度グラフはComet for Windowsで作成したものです。

---------------------------------------------------------------------

Copyright(C) Seiichi Yoshida (comet@aerith.net). All rights reserved.